RH
11 10 8 8 7 7 7 7 7 7 8 8 7 8 7 7 8 9 9 9 9 11 13 13 12 13 13 12 13 13 14 15 16 17 21 22 28 33 31 30 25 22 32
12 11 10 8 7 8 8 8 8 8 8 8 8 8 8 8 9 10 10 9 10 12 14 13 14 14 14 13 14 14 15 16 18 18 16 18 24 32 71 25 23 26 29
17 12 10 9 8 8 8 8 8 8 8 8 9 9 9 9 10 11 11 9 11 13 15 14 14 15 14 14 14 14 15 15 16 18 18 18 17 20 27 28 26 46 27
23 15 12 10 9 8 9 9 9 9 9 9 9 10 10 10 11 12 11 10 10 13 15 15 15 15 15 14 14 14 14 14 15 16 17 19 20 19 19 29 78 74 77
28 20 13 11 10 8 9 9 9 9 9 9 10 10 10 10 12 12 12 11 10 11 14 16 16 16 16 15 13 12 14 14 14 14 15 17 18 19 20 26 78 86 77
31 23 16 12 10 9 10 10 10 10 9 10 10 11 10 9 12 13 13 13 12 10 10 12 14 15 15 13 11 10 10 11 12 13 13 13 14 16 18 21 24 32 52
32 25 19 12 11 9 10 10 11 10 10 10 11 11 10 10 13 14 14 14 14 13 11 11 10 10 10 10 9 9 8 8 9 8 8 10 11 12 13 16 17 18 20
32 27 21 13 11 10 11 11 12 10 9 9 10 11 10 10 11 14 16 14 14 14 14 13 12 11 10 10 9 9 8 8 8 7 8 8 8 8 10 11 12 13 16
32 28 22 14 12 10 11 12 12 10 9 9 10 12 11 10 8 12 21 22 17 14 15 15 16 15 13 11 10 10 9 8 8 7 7 7 7 7 8 8 10 11 12
33 31 24 14 12 11 12 13 12 10 9 9 10 11 11 10 12 12 12 17 27 28 20 15 16 17 16 16 14 11 10 9 8 7 7 6 6 6 7 7 7 8 10
37 34 26 16 13 12 13 14 12 10 9 9 10 12 12 12 12 14 18 16 16 21 30 31 26 18 16 18 19 18 14 11 10 9 8 7 6 6 6 6 7 7 7
39 35 28 17 14 14 14 14 12 10 9 10 11 12 12 12 12 15 17 22 23 19 17 21 30 32 30 23 17 18 20 19 16 12 10 9 8 7 6 6 6 7 8
35 35 29 18 15 15 15 14 12 10 10 10 12 12 12 13 14 15 16 19 25 29 27 23 20 20 24 32 33 29 20 17 19 20 19 15 11 9 8 8 7 6 7
31 34 29 18 16 16 16 15 12 10 10 10 12 13 13 14 15 16 15 14 14 15 18 24 27 26 21 19 21 28 32 32 27 18 16 19 20 18 13 10 9 8 7
30 31 27 18 17 17 16 15 13 11 10 10 12 13 13 13 14 13 13 12 12 12 12 13 13 14 17 24 27 25 21 21 26 30 30 27 18 16 19 19 16 12 10
31 32 25 19 18 18 17 16 14 12 11 11 13 14 14 14 14 14 16 20 23 25 26 25 25 24 23 20 16 14 15 21 28 26 21 22 27 28 22 16 16 18 17
33 32 23 20 20 19 18 18 15 13 12 13 15 16 17 19 23 26 26 27 28 30 30 30 30 30 30 29 28 28 27 26 21 15 16 26 28 21 20 24 23 17 15
36 32 22 21 21 21 21 20 17 14 14 18 21 22 25 28 28 26 26 29 32 32 30 28 28 28 28 28 28 28 27 27 26 24 24 21 17 15 26 29 21 19 21
37 30 23 23 24 24 23 22 19 16 18 23 25 28 30 28 25 27 32 34 33 32 31 30 28 27 26 26 24 23 23 22 22 23 22 21 19 19 19 15 18 29 27
36 28 25 27 28 27 26 24 21 20 24 27 28 30 29 27 31 36 36 37 36 35 34 32 31 30 29 27 26 25 23 21 21 20 19 18 15 15 15 15 17 17 16
33 27 28 30 31 30 30 28 24 24 27 29 30 30 29 34 38 39 40 40 39 37 35 34 32 31 30 29 28 27 26 25 24 23 21 19 16 14 11 11 11 12 12
30 29 32 34 34 35 34 31 28 27 29 30 33 32 33 38 41 43 43 42 41 39 37 34 33 31 30 28 27 25 25 24 24 22 22 21 21 20 19 15 12 9 10
31 32 36 38 40 40 39 35 31 31 34 37 36 36 39 42 46 47 47 44 41 37 33 30 26 24 21 20 19 17 16 14 12 11 12 12 14 15 16 17 16 14 11
33 37 42 44 46 45 43 38 36 39 42 42 40 42 46 50 52 51 46 40 34 27 22 18 15 13 13 11 10 8 7 7 5 4 4 4 4 5 6 9 13 14 14
38 44 49 51 51 49 46 42 42 47 47 46 48 53 56 57 54 46 35 25 18 13 11 10 9 8 7 6 5 5 4 4 4 3 3 3 3 2 2 2 3 7 11
45 50 55 56 55 53 49 46 50 51 51 52 56 59 63 70 63 30 17 10 9 9 9 8 7 6 6 6 5 5 4 4 4 3 4 3 3 3 2 2 2 2 2
Wind_Speed
10 10 10 11 11 12 13 13 14 15 16 16 17 18 19 21 21 18 17 15 14 13 13 14 15 17 17 18 19 18 18 17 17 17 18 19 17 14 17 19 23 29 34
11 12 12 12 13 13 14 14 15 15 16 17 17 19 20 20 19 18 15 14 13 13 13 13 13 15 17 18 18 18 17 17 17 18 19 18 16 15 11 12 14 19 21
13 13 13 13 14 14 15 15 15 16 16 17 18 19 20 19 18 17 16 13 12 12 12 12 12 13 15 16 17 17 17 16 16 17 17 17 17 15 12 10 7 10 13
14 14 15 14 15 15 15 15 15 16 17 17 18 18 18 18 16 15 15 14 12 11 11 12 12 13 14 16 17 18 18 17 17 16 16 15 15 15 12 8 10 9 8
15 16 16 16 15 15 16 16 16 16 17 17 17 18 17 16 15 15 14 13 13 12 11 11 12 13 14 15 16 16 17 16 16 16 16 15 14 13 12 7 8 5 4
16 16 16 16 16 16 16 17 17 17 18 18 18 17 16 15 14 14 13 12 12 13 13 12 12 13 15 15 15 15 15 15 15 15 16 16 15 13 11 9 9 10 7
17 16 17 16 16 17 17 17 17 18 19 19 18 17 15 15 13 13 12 11 11 12 12 13 14 14 14 15 15 14 15 14 14 14 14 14 14 14 13 11 11 11 10
17 16 17 17 17 17 17 17 18 19 19 19 19 18 17 13 12 12 12 12 11 12 12 12 13 13 15 15 17 16 14 13 13 13 13 13 13 13 14 13 12 11 11
17 17 17 17 17 17 18 18 19 19 20 19 19 18 17 17 16 13 13 14 14 13 14 14 14 14 14 14 15 16 16 14 14 14 12 12 12 12 12 12 12 12 11
17 18 18 18 18 18 18 18 19 19 20 20 18 17 17 16 16 16 14 13 14 14 14 15 16 16 16 15 14 16 16 15 15 15 14 14 13 12 12 11 11 11 11
18 19 19 19 19 19 18 18 19 19 19 19 18 18 17 17 16 15 15 16 16 16 15 16 15 16 17 17 16 17 16 16 16 16 16 15 15 14 13 11 11 11 11
19 19 20 20 20 19 18 18 19 19 20 19 18 17 17 17 17 16 15 14 14 16 16 17 18 17 17 18 17 18 18 18 17 17 18 18 17 16 16 14 12 11 11
20 20 21 21 21 20 19 19 19 20 20 20 19 18 17 17 17 17 16 16 14 16 16 17 18 18 18 18 18 17 18 18 20 20 19 19 19 19 18 17 16 14 13
21 22 23 22 21 20 19 20 20 21 21 20 20 19 19 18 17 17 16 16 14 16 17 18 18 18 19 19 20 20 20 20 20 21 22 22 21 21 21 21 20 18 17
24 24 24 23 22 21 20 21 22 22 22 21 21 20 19 18 18 18 17 17 15 14 16 18 18 19 19 19 20 20 20 21 22 22 22 22 23 24 24 23 23 22 21
26 25 25 24 22 21 22 22 23 23 23 21 21 20 19 18 18 16 16 16 16 15 15 16 19 19 19 20 21 22 22 22 23 23 23 24 24 24 24 26 27 26 24
27 26 25 23 23 23 23 23 24 24 23 22 21 20 19 19 19 17 17 17 19 20 19 19 20 21 22 21 21 23 25 24 23 24 24 25 25 25 26 26 27 27 28
29 27 25 24 25 25 24 24 24 24 23 21 21 20 20 19 19 19 19 20 21 21 20 20 21 22 23 23 23 23 23 25 26 26 25 25 25 25 25 26 27 28 28
30 27 26 26 26 25 24 24 25 24 23 22 22 21 21 21 21 20 21 21 21 21 22 22 22 24 24 25 25 24 24 24 26 26 28 27 26 27 27 27 27 27 28
29 28 27 27 26 25 25 25 25 24 23 23 23 23 23 22 21 22 22 22 22 23 23 23 24 25 25 26 27 27 26 26 24 26 27 28 27 28 27 27 29 28 28
29 29 28 27 26 25 26 26 26 25 24 25 24 24 24 22 23 23 23 23 23 23 23 23 24 25 27 27 27 28 28 27 28 29 28 28 29 29 28 29 28 28 28
30 29 29 27 27 27 27 26 26 26 26 26 26 25 24 24 24 24 23 23 24 24 25 24 25 26 28 29 30 32 34 35 33 34 35 28 33 31 32 31 30 29 30
31 30 29 28 28 27 27 27 27 27 27 26 26 25 25 24 24 23 24 24 25 25 25 25 26 28 29 32 34 35 37 39 38 37 41 37 39 37 34 33 33 31 29
30 29 29 29 27 28 28 28 27 27 27 27 26 25 24 24 24 24 24 25 25 24 24 25 27 29 32 34 37 39 41 41 41 39 41 43 36 38 36 33 34 34 34
30 29 29 29 28 29 29 29 28 28 27 26 26 25 24 24 24 24 24 23 23 22 23 25 26 28 31 34 37 37 38 41 42 39 38 44 42 40 38 33 34 35 33
30 29 30 30 30 30 29 29 29 28 27 26 25 26 25 26 26 24 23 22 22 23 24 25 27 30 32 33 36 40 42 43 43 45 38 42 40 44 46 36 35 35 36
Wind_Direction
306 314 318 325 330 332 335 335 338 339 342 345 349 351 352 350 346 346 342 342 346 350 348 350 357 357 356 359 358 354 352 349 343 340 337 332 334 310 284 273 264 258 260
299 308 313 319 321 328 328 331 335 337 340 344 349 351 351 348 343 339 340 341 347 346 347 350 357 356 353 357 358 354 352 351 350 347 343 337 333 329 337 306 276 274 279
298 302 308 312 316 322 326 328 330 334 339 343 349 350 347 345 341 338 338 340 343 343 344 348 352 351 351 351 353 351 350 351 355 351 347 343 344 340 335 343 350 336 317
293 297 301 307 313 319 324 324 328 332 336 343 347 347 346 346 343 340 337 337 343 340 340 342 342 343 346 347 349 349 345 350 357 354 348 349 350 349 344 351 19 23 354
291 296 300 305 311 317 321 321 325 329 335 338 343 342 345 343 342 340 337 338 338 337 338 337 334 337 340 340 342 345 344 346 352 350 348 347 349 350 352 349 15 2 300
289 295 301 305 308 314 316 319 323 329 332 335 338 340 338 340 340 335 332 336 338 338 337 334 330 331 332 334 337 339 342 344 347 348 345 344 343 341 344 340 321 336 342
286 293 298 302 306 309 314 317 322 326 330 333 332 332 333 335 331 329 326 328 331 334 336 336 333 332 332 331 332 336 339 340 342 344 345 340 337 337 336 332 329 329 328
284 292 296 298 300 307 311 316 320 325 329 328 327 327 329 328 324 318 323 322 322 321 323 328 330 333 332 334 330 330 335 337 337 341 345 340 339 336 331 330 328 328 322
283 289 292 294 299 304 309 313 319 324 325 325 324 324 325 325 328 326 322 322 320 317 316 317 320 324 329 331 327 327 328 332 332 334 336 335 339 336 332 328 326 326 323
281 287 290 293 297 301 305 312 319 321 323 322 321 318 320 322 325 327 323 316 313 313 315 314 314 315 317 320 319 320 322 324 326 327 328 327 330 332 333 330 328 327 326
280 286 290 292 293 297 303 310 316 317 318 316 314 314 315 316 319 318 317 318 315 313 309 307 309 312 311 312 313 313 315 317 318 319 320 323 324 325 325 328 329 329 326
279 283 285 286 289 293 300 308 312 313 313 312 310 309 310 310 312 312 311 308 308 304 304 304 303 304 305 306 306 306 307 308 309 311 312 314 315 317 318 318 318 320 320
276 279 280 282 286 292 298 304 306 307 308 307 304 302 301 302 304 304 305 304 304 303 304 302 298 299 296 296 298 299 300 301 302 303 303 304 305 307 308 309 309 307 305
277 275 278 280 285 290 294 298 301 304 303 300 299 297 298 298 296 295 297 297 298 299 298 298 297 299 299 298 297 297 298 298 297 297 297 297 296 295 297 299 299 300 300
276 273 275 279 282 286 289 294 299 301 301 299 295 294 295 294 291 293 295 297 301 301 305 304 303 302 300 300 298 295 293 293 293 292 292 292 293 294 293 291 290 291 291
275 272 273 277 281 283 286 292 297 299 298 295 292 291 290 289 290 292 295 298 300 302 303 306 306 304 305 306 306 306 303 298 295 292 290 288 287 286 287 288 288 287 284
273 271 272 275 277 278 282 289 294 296 294 292 290 288 286 286 288 292 294 295 297 299 301 299 299 300 301 302 303 303 302 302 302 300 297 293 289 286 284 283 282 282 283
270 269 269 271 273 275 281 290 294 293 292 289 286 284 283 283 285 287 289 293 297 300 300 301 300 302 303 304 305 305 304 302 302 300 298 298 298 294 288 284 281 281 279
268 266 266 268 270 276 284 288 291 291 287 284 282 280 279 280 282 286 291 294 297 298 300 302 302 302 302 304 307 309 308 307 303 303 301 301 299 296 295 292 287 283 280
265 263 263 266 271 278 283 287 288 285 281 279 277 277 278 281 285 287 289 293 295 296 298 301 301 302 302 302 303 303 305 306 301 300 299 301 300 298 296 295 294 291 286
260 259 262 266 272 277 280 282 282 280 278 277 278 277 278 280 281 284 289 290 293 296 297 296 297 299 299 298 297 296 297 297 301 300 298 300 299 296 296 295 293 292 289
256 258 262 266 271 274 277 280 281 279 277 275 274 276 278 278 280 283 286 290 291 293 294 297 296 298 300 300 301 301 299 298 295 292 290 291 289 293 293 293 293 291 289
255 258 262 266 270 274 278 279 278 276 274 273 273 274 275 278 280 283 286 289 290 292 293 297 299 300 302 302 303 303 301 301 303 302 295 295 291 291 290 293 295 292 289
255 258 261 266 270 273 275 276 274 271 270 272 274 274 276 277 282 285 287 287 289 293 296 300 304 306 307 307 307 307 306 304 304 306 303 299 296 293 292 292 291 291 291
254 258 262 265 268 271 272 271 269 270 271 271 272 273 276 280 282 283 283 283 285 290 295 299 303 306 309 310 309 308 306 305 303 302 302 299 302 297 294 293 289 288 290
255 259 263 266 268 270 269 268 267 268 269 269 271 273 275 279 281 277 277 280 285 291 296 301 306 309 310 310 310 310 309 307 306 304 306 299 299 300 294 290 288 287 286